Wetbulb
75.67 76.76 78.84 78.91 78.22 78.27 77.11 76.58 76.93 76.80 76.88 76.99 77.45 77.76 77.78 77.55 77.69 77.90 78.06 78.11 77.96 77.73 77.93 78.14 78.14 77.39 77.12 76.37 76.42 77.30 77.17 77.12 77.41 76.82 76.93 76.70 76.62 76.80 76.23 76.59 77.26 75.76 76.43
76.29 76.95 79.00 79.53 79.02 78.39 77.80 77.41 77.39 77.25 76.85 77.05 77.46 77.80 77.35 77.12 76.88 77.07 77.30 77.30 77.36 77.36 77.20 77.89 77.99 77.53 76.42 76.42 76.48 77.13 77.26 77.20 77.15 76.77 76.99 77.34 76.88 76.69 76.45 77.07 76.90 75.97 76.41
75.85 77.17 78.20 79.52 79.21 78.22 78.58 78.23 77.45 77.11 76.91 77.11 77.44 77.78 77.51 77.07 77.10 77.18 77.38 77.74 78.52 77.91 77.14 76.95 77.40 77.49 76.75 77.66 77.28 77.27 77.09 77.12 76.73 76.93 77.15 74.92 75.35 76.72 76.69 76.63 76.46 75.94 76.23
76.34 76.77 77.47 78.97 79.30 78.64 78.39 78.70 78.24 77.29 77.07 77.34 77.61 77.64 77.37 77.05 77.00 76.89 76.86 76.97 77.11 77.61 77.85 77.37 76.79 76.79 77.46 77.50 77.50 77.36 77.00 76.13 75.98 74.93 75.82 74.84 74.73 76.52 76.52 76.53 76.25 76.22 76.09
76.44 77.04 78.58 79.39 79.52 79.01 78.83 79.15 78.73 78.56 77.51 77.51 77.72 77.65 77.35 76.89 76.75 76.70 76.78 76.89 76.50 76.43 76.65 77.38 77.12 76.70 76.48 76.89 77.13 77.04 76.41 75.70 73.51 72.16 75.09 75.45 74.90 76.35 76.40 76.31 76.17 75.89 76.22
76.13 76.63 78.50 79.53 79.32 79.60 79.51 79.06 78.49 78.25 78.23 77.86 77.42 77.57 77.28 76.81 76.56 76.54 76.79 76.75 76.61 76.67 76.56 76.12 77.03 76.65 76.14 76.17 76.69 76.34 74.84 73.86 72.90 72.86 74.65 75.55 75.09 76.03 75.79 75.95 76.25 76.22 76.04
75.52 77.37 77.99 78.98 79.38 79.03 78.78 78.02 77.99 78.05 77.80 77.52 77.29 77.07 76.82 76.73 76.65 76.62 76.20 75.65 75.42 75.20 74.97 76.01 75.76 76.50 75.18 75.12 73.25 73.81 74.57 73.03 72.65 71.73 74.37 74.92 75.70 76.62 76.16 76.21 75.59 75.81 75.39
76.20 76.43 77.48 78.64 78.49 78.47 78.11 78.14 78.03 77.70 77.21 76.86 76.69 76.13 75.58 74.40 75.21 75.59 74.91 75.14 75.39 75.29 75.09 74.92 75.40 75.40 75.32 74.26 74.29 73.32 73.68 73.54 73.42 72.97 73.13 73.59 75.33 76.24 76.02 76.14 75.32 75.34 75.39
76.27 75.62 76.59 77.23 78.04 77.87 78.37 77.73 77.63 77.63 76.70 76.42 75.59 74.92 73.85 74.34 74.61 74.93 74.95 74.37 74.37 74.64 75.02 75.47 74.89 75.43 75.06 74.37 74.37 74.46 74.21 72.39 72.86 73.75 71.86 71.68 74.67 75.79 75.26 75.71 75.29 75.34 75.26
75.92 75.99 76.52 76.43 77.15 78.03 77.56 77.70 77.56 77.19 76.80 75.87 74.34 73.95 74.86 74.80 74.14 74.13 74.27 73.56 73.87 74.10 74.24 75.41 74.75 75.40 75.26 75.15 74.84 74.43 73.85 73.46 72.38 72.83 72.35 71.81 73.90 74.76 74.94 74.89 75.31 75.12 75.38
74.85 76.47 75.82 75.75 76.45 77.30 77.00 77.55 77.67 77.41 76.43 75.54 73.02 71.22 70.14 73.14 74.09 73.32 73.38 73.29 73.70 74.39 74.97 74.79 74.41 75.72 75.80 75.42 75.44 74.12 73.62 73.06 72.31 71.99 72.64 72.95 73.43 74.17 73.22 74.11 74.75 75.47 75.48
73.78 74.63 76.35 75.67 76.40 75.36 75.13 77.40 77.90 76.22 76.12 74.31 71.10 69.64 69.71 71.24 73.56 72.52 73.35 74.01 74.40 74.67 75.05 74.82 75.62 76.39 76.20 74.75 73.42 75.00 73.22 73.08 72.59 71.09 72.84 74.59 73.25 73.05 72.58 73.49 73.73 74.53 74.85
73.21 75.07 74.71 75.73 76.12 74.28 76.50 77.62 76.83 75.65 75.26 74.02 72.90 69.80 69.51 72.11 73.48 74.69 74.65 73.16 74.62 74.71 74.59 74.49 75.62 75.55 73.82 74.46 73.77 73.73 74.17 75.18 75.55 73.24 72.18 72.74 72.23 72.72 73.02 73.99 73.33 73.48 74.83
72.04 73.51 74.85 75.16 76.21 76.29 76.46 76.18 76.76 74.79 74.81 76.50 74.35 73.65 72.36 70.94 70.27 75.49 73.47 73.96 75.27 74.46 73.80 75.39 74.12 74.90 76.17 76.81 75.18 74.87 76.24 74.86 74.76 74.49 72.59 73.88 73.07 73.08 73.84 74.04 73.98 73.85 73.55
71.94 73.28 73.97 75.79 77.28 77.28 77.01 77.01 77.60 75.20 76.42 76.87 77.54 75.44 74.56 74.07 73.24 71.15 75.58 75.79 74.92 76.02 74.68 74.87 75.25 74.91 75.20 75.26 75.54 75.92 74.93 73.12 74.43 73.91 73.13 74.73 73.59 73.64 74.28 74.49 73.77 74.68 74.57
72.86 73.83 74.48 75.26 77.32 76.20 76.65 77.57 77.06 77.68 77.08 78.14 77.46 77.24 75.58 75.32 73.26 71.88 72.77 72.69 72.94 74.31 76.39 75.92 75.58 76.45 74.03 74.31 75.34 76.14 75.67 76.49 76.22 75.26 73.58 74.54 74.72 74.56 74.40 74.82 74.95 74.87 74.99
73.15 73.53 74.54 76.03 76.30 76.50 76.94 77.79 77.85 76.90 74.90 75.16 77.27 76.42 75.51 74.15 72.04 72.93 71.27 73.42 73.43 75.87 76.74 76.22 76.17 76.59 75.23 74.61 75.15 76.03 75.41 76.18 75.47 75.55 74.86 75.58 75.24 74.70 74.47 74.82 75.31 75.76 75.17
74.29 73.97 75.48 75.59 75.43 76.53 76.45 78.64 77.43 77.36 75.88 76.46 78.17 78.65 75.97 73.80 73.66 73.07 70.45 73.38 74.28 76.26 75.52 75.92 75.07 73.64 74.73 75.11 74.89 74.29 74.76 75.89 75.28 74.77 75.28 73.32 74.98 74.50 74.98 75.54 75.63 75.77 74.99
73.25 74.64 75.49 75.78 75.35 75.86 76.95 77.84 77.03 77.02 75.99 74.68 77.51 78.28 76.45 74.06 73.66 71.90 71.20 72.61 74.83 75.74 75.41 75.58 74.23 74.54 73.82 74.77 73.89 75.32 75.51 75.97 73.52 74.12 74.77 74.99 73.33 74.19 74.34 75.38 75.77 76.05 75.86
73.05 75.13 75.73 76.02 76.56 76.56 76.71 77.81 76.94 78.12 75.80 75.54 77.68 77.37 76.79 74.84 74.40 73.24 71.05 73.00 74.93 74.82 75.84 74.69 75.87 75.12 75.48 74.22 74.23 74.96 75.35 75.35 74.95 72.42 74.00 74.30 73.23 75.15 73.99 75.22 74.77 75.11 76.18
74.50 74.84 75.70 75.83 76.97 76.64 78.55 76.94 77.87 76.65 76.48 77.30 79.35 76.87 76.73 75.73 73.72 74.51 72.63 72.82 74.39 74.48 75.94 76.47 75.49 73.30 74.39 75.51 74.90 72.28 73.43 75.01 74.57 74.21 74.38 73.02 74.81 74.25 73.62 75.07 74.45 73.65 74.67
74.37 75.30 76.12 75.89 76.86 77.59 78.84 78.08 79.23 75.85 76.31 79.03 78.34 75.89 75.97 74.55 73.39 73.93 75.01 75.17 74.04 75.29 75.81 76.12 75.51 73.98 73.32 76.57 73.92 73.52 71.55 72.06 73.19 72.99 74.85 74.06 73.81 73.67 74.17 74.47 74.13 74.81 74.99
74.04 74.41 75.15 76.10 76.57 77.15 77.45 78.13 76.74 77.85 76.89 73.97 72.42 72.69 74.66 73.94 72.95 74.45 74.79 75.97 74.53 74.86 74.00 74.96 76.99 75.41 72.32 74.22 76.05 73.57 67.26 67.87 70.66 72.29 74.68 73.75 74.68 73.01 73.30 74.07 74.27 74.78 75.12
73.30 74.51 75.45 76.21 76.65 77.27 77.65 76.83 76.70 75.04 74.29 75.53 74.64 74.21 74.24 74.31 73.80 74.66 75.13 76.25 75.75 74.70 75.53 76.06 75.92 77.23 76.36 73.93 73.67 74.96 75.45 71.11 68.33 68.03 72.17 74.17 74.30 73.60 73.35 73.58 73.58 74.44 75.17
74.41 74.73 75.61 76.21 76.92 77.29 77.90 77.81 75.71 75.59 74.79 75.48 76.50 74.44 76.86 77.78 75.49 74.33 75.66 76.31 76.63 75.27 76.87 77.28 76.95 77.28 75.98 73.60 73.21 72.56 72.24 71.48 72.95 70.82 66.02 70.26 73.52 74.76 73.56 74.65 73.89 73.82 74.95
74.44 74.56 75.50 76.74 76.96 77.78 78.38 77.96 76.83 76.19 75.26 74.67 75.20 75.03 76.11 77.93 77.40 76.71 76.29 76.39 76.97 76.69 77.59 76.44 77.55 76.93 78.09 75.93 74.79 74.98 75.22 71.28 69.45 68.90 67.80 70.98 69.36 71.06 74.82 73.58 75.03 73.81 75.01
MSLP
1010.85 1012.24 1013.21 1013.53 1013.89 1014.26 1014.69 1015.03 1015.31 1015.69 1015.91 1016.14 1016.29 1016.41 1016.54 1016.63 1016.74 1016.81 1016.95 1017.14 1017.31 1017.39 1017.43 1017.40 1017.48 1017.64 1017.83 1018.08 1018.11 1018.13 1018.21 1018.33 1018.33 1018.36 1018.50 1018.69 1018.73 1018.77 1018.85 1018.80 1018.68 1019.02 1019.53
1010.57 1012.25 1013.30 1013.61 1013.98 1014.37 1014.81 1015.16 1015.50 1015.82 1016.22 1016.41 1016.57 1016.69 1016.89 1016.96 1017.02 1017.16 1017.30 1017.46 1017.61 1017.70 1017.77 1017.76 1017.79 1017.98 1018.18 1018.28 1018.33 1018.46 1018.53 1018.63 1018.65 1018.64 1018.57 1018.67 1019.02 1019.02 1019.17 1019.06 1019.13 1019.76 1019.98
1010.81 1012.29 1013.33 1013.88 1014.23 1014.60 1014.92 1015.20 1015.66 1015.93 1016.34 1016.69 1016.92 1017.06 1017.22 1017.34 1017.38 1017.46 1017.61 1017.72 1017.74 1017.91 1017.99 1018.14 1018.18 1018.25 1018.36 1018.48 1018.59 1018.71 1018.81 1018.83 1018.88 1018.75 1018.54 1018.11 1018.76 1019.35 1019.43 1019.66 1019.94 1020.16 1020.33
1010.64 1011.90 1012.98 1014.15 1014.44 1014.75 1015.22 1015.53 1015.70 1016.00 1016.47 1016.85 1017.12 1017.29 1017.51 1017.65 1017.72 1017.80 1017.96 1018.03 1018.05 1018.11 1018.22 1018.38 1018.47 1018.43 1018.49 1018.60 1018.77 1018.85 1018.93 1019.07 1019.10 1019.05 1018.27 1018.35 1018.78 1019.56 1019.63 1019.92 1020.21 1020.48 1020.66
1010.60 1011.29 1013.22 1014.28 1014.71 1015.01 1015.31 1015.66 1015.99 1016.31 1016.61 1016.98 1017.30 1017.54 1017.68 1017.88 1018.03 1018.09 1018.21 1018.25 1018.35 1018.40 1018.44 1018.52 1018.53 1018.59 1018.66 1018.76 1018.87 1018.92 1019.01 1019.14 1019.21 1019.09 1019.12 1018.99 1018.87 1019.83 1020.00 1020.16 1020.45 1020.68 1020.67
1010.47 1011.47 1013.99 1014.47 1014.98 1015.19 1015.49 1015.86 1016.27 1016.49 1016.93 1017.21 1017.44 1017.66 1017.93 1018.11 1018.23 1018.34 1018.45 1018.52 1018.58 1018.62 1018.66 1018.66 1018.59 1018.72 1019.02 1018.89 1018.92 1019.24 1019.06 1019.22 1019.32 1019.27 1019.61 1019.46 1019.04 1020.13 1020.23 1020.25 1020.63 1020.88 1021.06
1010.79 1012.20 1013.91 1014.76 1015.13 1015.55 1015.82 1016.27 1016.51 1016.93 1017.10 1017.44 1017.77 1018.01 1018.22 1018.33 1018.47 1018.58 1018.64 1018.74 1018.79 1018.83 1018.82 1018.79 1018.64 1018.78 1019.08 1019.23 1019.45 1019.40 1019.49 1019.33 1018.98 1019.19 1019.86 1019.67 1020.16 1020.26 1020.39 1020.66 1021.01 1021.19 1021.37
1011.23 1012.16 1013.83 1015.00 1015.39 1015.71 1016.05 1016.40 1016.71 1017.10 1017.53 1017.83 1018.08 1018.34 1018.53 1018.66 1018.78 1018.68 1018.74 1018.83 1018.87 1018.89 1018.87 1018.90 1018.82 1019.01 1019.29 1019.28 1019.33 1019.45 1019.56 1019.41 1018.86 1019.47 1020.39 1020.54 1020.36 1020.35 1020.67 1020.83 1021.23 1021.43 1021.62
1011.46 1012.31 1013.69 1014.61 1015.43 1015.80 1016.12 1016.48 1016.76 1017.05 1017.47 1017.88 1018.22 1018.52 1018.75 1018.90 1018.90 1018.78 1018.79 1018.83 1018.87 1018.85 1018.82 1018.73 1018.90 1019.05 1019.09 1019.24 1019.32 1019.43 1019.47 1019.54 1019.31 1019.24 1020.16 1020.63 1020.47 1020.65 1020.88 1021.08 1021.42 1021.62 1021.76
1011.85 1013.12 1013.41 1014.27 1014.98 1015.74 1016.14 1016.46 1016.72 1017.11 1017.48 1017.83 1018.17 1018.65 1019.06 1019.15 1019.12 1018.94 1018.86 1018.96 1018.83 1018.81 1018.75 1018.69 1018.74 1018.94 1019.02 1019.07 1019.17 1019.32 1019.41 1019.57 1019.67 1019.53 1019.15 1019.85 1020.42 1020.60 1020.97 1021.16 1021.63 1021.89 1021.93
1012.14 1013.22 1013.70 1014.45 1014.95 1015.32 1015.56 1016.25 1016.80 1017.06 1017.35 1017.81 1018.03 1018.39 1019.01 1019.35 1019.24 1019.02 1018.99 1018.90 1018.79 1018.60 1018.52 1018.54 1018.59 1018.82 1018.85 1018.82 1018.83 1019.03 1019.30 1019.05 1019.60 1019.66 1019.45 1019.88 1020.13 1020.40 1020.94 1021.26 1021.60 1021.78 1021.98
1011.78 1012.61 1013.54 1013.76 1014.15 1014.68 1014.74 1015.99 1016.56 1016.96 1017.34 1017.72 1018.23 1018.46 1018.95 1019.35 1019.34 1018.81 1018.80 1018.72 1018.51 1018.32 1018.22 1018.29 1018.36 1018.46 1018.35 1017.52 1018.69 1019.11 1019.01 1018.65 1018.91 1019.56 1019.82 1019.94 1020.27 1020.54 1020.94 1021.26 1021.71 1021.82 1021.92
1010.96 1012.12 1012.98 1013.37 1013.81 1014.45 1014.73 1015.78 1016.46 1017.25 1017.26 1017.65 1018.20 1018.64 1019.03 1019.13 1019.11 1018.62 1017.97 1017.91 1017.84 1018.12 1017.48 1017.90 1017.81 1017.46 1017.39 1017.55 1018.21 1018.74 1018.33 1018.23 1018.50 1018.27 1019.00 1019.57 1019.96 1020.23 1020.61 1020.97 1021.41 1021.70 1021.89
1011.38 1011.82 1012.34 1013.03 1013.86 1014.24 1014.49 1015.43 1015.97 1016.69 1016.44 1016.81 1017.24 1018.13 1018.45 1018.90 1018.71 1018.62 1018.63 1018.30 1018.26 1017.37 1017.77 1017.20 1016.62 1016.45 1016.91 1017.22 1017.00 1017.40 1017.41 1017.06 1017.34 1017.96 1018.17 1018.84 1019.39 1019.97 1020.29 1020.90 1021.27 1021.50 1021.76
1012.01 1012.73 1012.88 1013.57 1014.04 1014.47 1014.73 1015.26 1015.97 1016.29 1016.34 1016.97 1017.25 1017.48 1017.54 1017.71 1018.13 1018.83 1018.26 1017.86 1017.75 1017.31 1017.19 1016.41 1016.56 1016.61 1016.99 1016.82 1016.85 1016.81 1016.82 1017.41 1016.85 1018.13 1018.03 1018.79 1019.08 1019.59 1020.09 1020.41 1021.03 1021.29 1021.58
1012.16 1012.50 1013.05 1013.76 1014.17 1014.36 1014.61 1015.35 1015.92 1016.09 1015.85 1016.61 1017.04 1017.09 1017.59 1018.07 1018.44 1018.88 1018.18 1018.10 1017.89 1017.22 1016.89 1016.66 1017.08 1016.74 1017.08 1016.95 1016.72 1016.42 1016.60 1016.39 1016.09 1016.38 1017.52 1018.30 1018.94 1019.23 1019.75 1020.25 1020.62 1020.98 1021.31
1011.84 1012.56 1012.68 1013.27 1014.05 1014.72 1014.74 1015.39 1015.90 1015.87 1015.90 1016.61 1016.75 1016.92 1017.32 1017.92 1018.31 1018.39 1018.61 1017.70 1017.43 1017.05 1016.88 1016.65 1016.42 1016.46 1016.42 1016.07 1016.50 1016.40 1016.36 1016.39 1016.39 1016.53 1016.98 1017.01 1018.30 1019.09 1019.45 1019.83 1020.23 1020.57 1020.91
1011.80 1012.61 1012.61 1013.00 1013.25 1014.43 1014.82 1015.23 1015.74 1015.67 1015.07 1015.88 1016.19 1016.61 1016.81 1017.73 1017.83 1018.25 1018.53 1017.86 1017.53 1016.99 1016.86 1016.44 1016.44 1016.76 1016.83 1016.25 1016.21 1016.18 1016.46 1016.09 1016.12 1016.58 1016.34 1017.68 1017.54 1017.86 1019.01 1019.53 1019.92 1020.20 1020.55
1012.48 1012.21 1012.87 1013.09 1013.12 1013.96 1014.53 1015.16 1015.33 1015.29 1015.15 1015.31 1016.07 1016.29 1016.59 1017.15 1017.64 1018.00 1018.00 1018.05 1017.54 1017.05 1016.54 1016.58 1016.51 1016.71 1016.78 1016.09 1016.39 1016.38 1016.14 1016.13 1016.20 1015.79 1015.99 1016.40 1017.22 1017.45 1017.76 1018.57 1019.40 1019.88 1020.15
1012.42 1012.25 1013.05 1013.42 1013.50 1014.23 1014.69 1015.09 1014.91 1015.17 1014.90 1015.23 1015.64 1015.99 1016.08 1016.32 1017.19 1017.59 1017.90 1017.58 1017.07 1016.88 1017.16 1016.82 1016.94 1016.75 1016.46 1016.15 1015.90 1016.16 1016.02 1015.89 1015.43 1016.09 1015.62 1015.48 1016.42 1016.93 1017.24 1017.87 1018.83 1019.34 1019.89
1011.55 1011.94 1012.39 1012.90 1013.51 1014.09 1014.37 1014.56 1014.76 1014.82 1014.94 1015.27 1015.51 1015.70 1015.89 1016.30 1016.97 1017.18 1017.40 1017.36 1016.98 1016.90 1017.14 1017.26 1017.20 1017.06 1016.15 1016.22 1015.79 1016.46 1016.71 1016.12 1015.83 1015.61 1015.01 1015.05 1015.64 1016.06 1016.85 1017.27 1017.76 1018.22 1019.08
1010.89 1011.49 1012.06 1012.76 1013.59 1014.00 1014.29 1014.65 1014.76 1014.60 1014.18 1015.20 1015.56 1015.89 1016.19 1016.54 1016.72 1016.80 1016.62 1016.82 1016.94 1016.79 1016.97 1017.18 1017.05 1016.71 1016.24 1015.48 1016.20 1016.73 1016.78 1016.48 1015.91 1015.45 1015.37 1015.20 1015.32 1015.37 1016.10 1016.86 1017.23 1017.31 1017.65
1010.97 1011.76 1012.22 1012.71 1013.02 1013.64 1014.02 1014.33 1014.28 1014.45 1014.85 1015.31 1015.71 1016.12 1016.27 1016.25 1016.69 1016.41 1016.49 1016.38 1016.87 1016.69 1016.20 1016.76 1016.77 1016.48 1016.14 1016.24 1015.80 1016.20 1016.88 1016.81 1016.42 1016.07 1015.69 1015.55 1015.40 1015.28 1015.28 1015.77 1016.18 1016.81 1017.50
1010.43 1011.05 1011.72 1012.30 1012.75 1013.27 1013.45 1013.45 1013.61 1014.05 1014.62 1015.04 1015.39 1015.58 1015.79 1015.73 1016.12 1015.98 1016.28 1016.17 1016.44 1016.48 1015.92 1016.28 1016.05 1016.39 1016.28 1016.31 1015.96 1015.18 1015.22 1016.34 1016.42 1016.37 1016.35 1015.74 1015.69 1015.42 1015.11 1015.36 1015.55 1016.05 1016.73
1009.88 1010.27 1011.08 1011.83 1012.34 1012.51 1012.93 1013.18 1013.39 1013.86 1014.31 1014.59 1015.04 1015.11 1015.09 1015.04 1015.40 1015.74 1015.66 1015.81 1016.17 1016.16 1015.78 1015.75 1015.87 1016.09 1015.86 1015.58 1015.37 1015.01 1014.73 1015.12 1015.43 1016.49 1017.03 1016.54 1015.90 1015.49 1015.38 1014.93 1014.68 1015.02 1015.58
1009.17 1009.63 1010.29 1011.40 1011.95 1012.30 1012.68 1013.20 1013.48 1013.72 1014.04 1014.18 1014.31 1014.68 1014.66 1014.81 1014.87 1014.74 1014.95 1015.34 1015.61 1015.90 1015.70 1015.77 1015.80 1016.06 1016.03 1015.88 1015.57 1015.02 1014.44 1014.94 1016.03 1016.93 1017.71 1016.88 1015.71 1014.85 1014.39 1014.48 1014.06 1014.29 1014.77
Wind_Speed
16 17 14 17 18 16 17 17 16 15 14 13 14 14 14 15 15 15 15 15 14 13 12 11 11 11 13 13 13 13 13 13 15 15 16 15 14 12 9 11 15 17 15
20 17 14 17 18 16 16 17 16 16 14 13 13 12 13 14 14 14 14 13 13 12 12 11 14 14 13 13 13 12 12 13 13 14 16 16 14 14 12 14 17 14 15
20 18 17 16 17 18 17 17 17 16 15 13 12 12 12 12 13 13 13 12 12 12 12 12 11 13 13 13 12 12 12 12 11 12 14 11 14 13 15 16 15 13 13
20 18 18 15 17 18 17 15 16 17 16 13 12 11 11 11 11 12 12 12 11 11 11 12 11 10 12 12 13 13 11 8 7 3 2 12 12 13 15 15 13 12 13
19 18 18 15 16 17 17 15 15 14 15 13 12 11 10 10 9 10 10 10 10 9 9 10 9 10 10 10 12 13 12 8 3 1 6 9 11 11 13 14 12 11 10
18 19 17 16 16 16 16 15 15 15 14 13 12 11 9 9 8 8 8 7 7 7 7 7 7 7 8 9 10 8 12 9 6 9 4 8 12 12 11 11 11 12 13
17 20 17 15 15 14 14 14 13 12 12 12 10 9 8 7 7 7 6 5 4 4 3 4 5 7 7 7 5 4 6 5 6 7 9 10 7 11 12 12 9 10 11
17 19 17 15 14 14 14 13 13 12 11 10 9 8 5 3 4 5 3 1 2 2 2 2 3 4 7 7 6 5 2 5 7 10 4 3 6 10 11 11 9 8 10
17 12 16 15 13 14 14 14 14 13 12 11 10 8 3 1 2 1 3 1 0 2 3 4 4 6 7 8 7 6 6 7 7 3 7 4 8 11 10 10 8 7 9
19 12 10 12 14 12 13 14 14 13 12 14 14 8 9 8 1 1 4 1 2 3 4 5 5 6 8 9 10 9 10 10 4 8 8 10 14 14 11 9 7 7 8
15 16 13 12 10 12 11 11 11 13 12 14 13 11 2 4 4 1 8 7 5 5 6 5 4 7 8 11 14 13 11 8 7 3 3 14 13 13 10 9 7 8 8
21 13 16 14 17 13 11 13 10 8 8 6 5 6 6 6 4 6 8 8 10 9 9 8 8 10 12 8 6 10 6 6 9 5 1 2 6 7 7 12 9 7 8
14 16 11 14 10 10 6 8 6 4 7 7 7 7 7 5 3 4 4 6 5 9 7 8 8 9 8 10 8 8 9 9 6 9 11 5 5 8 13 16 14 10 7
11 11 15 11 7 5 9 9 8 8 8 4 8 10 8 4 7 5 4 5 7 1 6 11 4 2 1 2 7 8 2 10 8 6 8 19 17 16 16 16 14 15 12
11 8 8 8 7 3 5 6 6 9 6 8 5 10 8 7 7 4 3 4 4 3 8 4 1 4 4 6 5 3 9 7 10 7 3 21 20 18 17 17 17 15 15
12 14 9 12 8 7 8 9 6 4 4 1 6 7 6 4 3 2 6 6 6 3 3 3 3 2 3 4 7 5 5 4 7 6 10 11 20 19 18 18 16 16 16
13 9 14 15 13 8 6 6 5 6 6 5 6 8 10 7 5 5 4 6 3 4 4 4 4 4 4 3 5 6 7 6 5 4 4 10 12 18 18 19 18 16 17
6 8 10 11 14 13 10 7 5 5 5 3 3 6 9 8 9 7 4 5 6 4 4 2 5 4 5 5 4 4 4 5 5 9 4 7 9 10 16 18 17 16 19
12 9 8 8 7 9 7 4 6 7 7 7 4 4 8 9 5 5 5 6 7 4 5 4 3 4 4 5 5 4 4 3 10 9 8 6 10 7 8 21 20 16 18
16 10 11 9 5 10 6 6 6 4 7 4 5 6 9 8 9 7 3 6 6 5 3 5 6 2 4 5 3 2 3 1 8 8 6 8 8 10 8 13 12 12 18
12 12 14 13 9 7 6 7 5 6 6 5 5 6 8 8 8 8 7 7 7 6 3 3 3 7 7 4 2 5 4 4 5 4 6 4 10 8 8 6 9 9 11
11 11 7 7 10 7 5 5 6 5 3 4 3 3 5 6 5 8 8 5 9 4 6 5 6 6 8 3 3 2 2 3 5 6 2 4 9 7 12 12 11 11 9
9 8 10 10 9 9 8 5 4 3 2 3 2 3 5 6 9 11 6 8 6 8 8 7 3 8 2 5 1 4 2 3 4 4 6 3 2 6 7 7 9 12 9
9 10 10 10 10 11 12 8 8 5 3 4 5 7 9 9 9 8 10 11 8 8 8 7 8 6 5 3 5 4 5 8 4 3 3 4 4 6 8 8 9 9 13
14 12 10 9 10 9 10 9 6 6 4 4 5 7 7 7 12 10 12 11 9 10 8 8 1 4 3 6 5 4 4 7 4 3 3 4 4 4 5 7 10 10 10
10 9 12 11 10 10 10 10 9 7 6 5 5 5 5 5 7 10 11 10 9 9 8 7 6 5 5 5 6 6 1 3 3 3 2 5 8 7 8 8 8 6 6
Wind_Direction
142 132 145 147 146 140 139 136 134 134 128 121 116 113 104 99 95 92 90 96 96 91 91 105 112 112 105 105 104 102 103 98 100 102 102 96 98 93 98 120 123 100 107
130 138 147 149 145 142 143 141 140 140 141 132 125 119 108 102 99 96 97 99 98 100 97 89 99 103 109 113 111 104 102 110 108 111 115 111 97 95 83 75 82 101 105
129 131 149 144 144 144 145 144 144 144 147 139 131 119 112 105 101 99 99 96 97 106 103 101 101 115 117 116 115 110 103 105 120 141 158 108 106 99 99 95 100 104 102
137 151 143 147 144 147 147 147 145 145 148 143 137 125 115 108 106 103 100 96 92 88 99 107 109 108 119 119 116 114 116 119 131 68 271 97 95 107 105 105 107 108 105
142 141 123 145 145 148 149 149 150 148 148 149 140 132 124 116 108 102 100 101 98 95 95 104 114 126 126 128 128 130 124 125 120 249 17 125 113 102 111 113 123 123 120
150 122 131 140 144 150 150 152 152 151 152 151 146 139 131 119 114 108 102 95 94 98 107 109 129 134 123 137 144 140 136 150 209 99 123 52 94 113 118 103 100 115 109
131 123 140 141 143 145 147 150 149 149 152 144 140 136 129 129 122 119 107 106 109 114 120 141 155 148 139 151 165 161 146 174 244 149 41 95 100 115 109 112 108 117 123
122 138 137 141 144 143 145 145 143 142 137 131 123 116 108 112 135 124 114 132 157 182 198 219 193 167 167 173 195 187 207 245 214 113 110 94 98 116 115 111 117 126 123
133 143 150 155 148 148 147 149 147 145 142 132 99 72 52 114 111 143 111 148 317 286 256 257 229 194 194 191 201 192 184 257 298 312 143 131 115 124 121 119 120 138 130
135 151 151 152 160 164 164 161 160 151 142 120 104 67 33 1 302 157 232 318 344 320 305 283 248 195 198 203 198 204 211 218 265 296 188 165 160 144 134 128 142 143 142
138 155 154 159 155 174 168 161 165 160 152 151 157 140 305 314 309 205 330 310 290 283 285 276 232 195 202 211 203 199 206 212 212 271 248 130 163 165 146 144 162 157 157
143 166 159 177 175 166 184 150 173 136 155 148 168 154 185 244 269 281 251 255 260 255 251 235 209 204 213 205 189 201 201 257 192 200 136 115 187 202 196 194 180 174 170
172 161 190 166 163 170 132 148 173 149 176 183 182 181 190 225 271 291 310 278 232 226 246 217 208 222 151 247 163 155 234 195 209 198 201 202 232 236 212 211 193 191 189
151 187 174 141 171 163 160 173 170 188 209 191 200 183 185 201 248 222 252 211 269 210 301 216 252 245 252 138 252 186 169 215 202 204 182 194 206 215 216 208 216 204 208
159 159 191 136 175 160 199 123 151 193 190 189 186 197 201 216 200 266 215 283 264 196 243 247 249 251 204 227 261 243 211 218 210 196 242 194 200 203 216 218 200 212 215
175 183 153 156 171 205 201 152 191 166 203 221 182 193 202 205 150 208 274 281 257 244 13 278 245 196 332 237 227 204 256 257 255 172 176 190 199 199 205 209 210 214 218
173 162 198 171 161 193 240 176 178 200 168 192 153 181 180 184 163 197 221 268 292 298 242 298 251 207 275 281 177 222 204 222 242 200 185 180 188 202 204 208 211 220 222
152 186 176 203 168 177 204 192 189 220 236 153 180 187 170 173 193 170 203 263 284 274 260 309 267 68 289 269 266 19 265 196 247 239 160 155 211 189 198 210 215 214 217
267 200 180 198 188 164 191 172 206 207 229 202 188 195 184 183 169 170 212 219 256 277 318 299 314 113 242 259 255 172 237 150 251 195 180 184 181 215 186 190 206 210 210
234 184 181 186 220 166 169 194 211 214 233 234 197 191 188 189 182 201 238 260 261 262 294 295 350 340 274 287 232 207 198 117 258 121 166 225 161 174 190 162 190 202 211
167 179 180 178 183 178 201 203 197 203 218 219 229 217 174 178 185 215 234 187 241 243 216 307 255 265 280 239 299 75 301 272 274 171 207 199 152 183 157 175 182 201 189
173 174 162 169 187 191 194 212 215 234 238 168 196 141 194 195 198 225 235 220 217 269 211 239 265 272 251 163 102 59 345 274 247 258 165 285 158 199 165 182 198 191 200
147 159 175 187 186 181 205 210 228 220 230 81 14 225 237 203 211 226 238 228 232 244 229 216 211 280 311 335 358 142 145 218 338 66 253 246 185 219 201 206 209 176 209
148 163 166 182 187 192 198 205 207 209 167 188 186 204 214 209 215 236 222 232 211 244 254 203 201 234 245 238 291 240 219 168 161 253 122 286 207 268 208 194 207 200 195
167 163 159 176 183 198 200 232 190 220 216 205 176 211 235 207 208 225 222 226 223 233 234 252 283 230 245 265 201 234 329 81 313 101 26 307 320 218 235 248 201 203 206
152 168 156 172 194 206 204 211 215 245 217 210 220 198 212 217 212 211 211 210 218 235 235 233 249 261 275 302 324 307 192 78 90 94 43 249 228 239 221 202 243 187 180